Regional Weather Roundup
Issued by NWS Green Bay, WI

Home | Current Version | Previous Version | Graphics & Text | Print | Product List | Glossary Off
Versions: 1 2 3 4 5 6 7 8 9 10 11 12 13 14 15 16 17 18 19 20 21 22 23 24 25 26 27 28 29 30 31 32 33 34 35 36 37 38 39 40 41 42 43 44 45 46 47 48 49 50

722
ASUS43 KGRB 171500
RWRGRB

NORTH-CENTRAL AND NORTHEAST WISCONSIN REGIONAL WEATHER ROUNDUP
NATIONAL WEATHER SERVICE GREEN BAY WI
1000 AM CDT TUE OCT 17 2017

WIZ005-009-010>012-018-019-171600-
NORTH CENTRAL WISCONSIN

CITY           SKY/WX    TMP DP  RH WIND       PRES   REMARKS
IRONWOOD       MOSUNNY   54  41  61 CALM      29.99R
MANITOWISH WTR NOT AVBL
ARBOR VITAE    NOT AVBL
EAGLE RIVER    NOT AVBL
LAND O LAKES   NOT AVBL
RHINELANDER    SUNNY     54  41  61 W5        30.04R
PHILLIPS       NOT AVBL
ANTIGO         NOT AVBL
TOMAHAWK       NOT AVBL
MERRILL        NOT AVBL
$$

WIZ013-073-171600-
NORTHEAST WISCONSIN

CITY           SKY/WX    TMP DP  RH WIND       PRES   REMARKS
IRON MOUNTAIN  CLOUDY    54  38  54 W6        29.99S
MARINETTE      SUNNY     54  41  61 VRB5      30.02R
$$

WIZ017-030-035>037-045-171600-
CENTRAL WISCONSIN

CITY           SKY/WX    TMP DP  RH WIND       PRES   REMARKS
MEDFORD        NOT AVBL
WAUSAU         SUNNY     52  41  66 S5        30.03S
MOSINEE        MOSUNNY   54  45  71 SW7       30.06R
MARSHFIELD     SUNNY     55  41  59 W9        30.05R
WISC RAPIDS    SUNNY     55  43  63 SW7       30.07S
STEVENS POINT  NOT AVBL
WAUPACA        NOT AVBL
SHAWANO        NOT AVBL
CLINTONVILLE   NOT AVBL
WAUTOMA        SUNNY     56  44  64 W10       30.08S
$$

WIZ038-039-048-051-171600-
FOX VALLEY

CITY           SKY/WX    TMP DP  RH WIND       PRES   REMARKS
NWS GREEN BAY  SUNNY     57  44  62 SW12      30.06R
APPLETON       SUNNY     55  39  54 SW10      30.05R
OSHKOSH        SUNNY     57  44  62 SW5       30.07R
FOND DU LAC    SUNNY     57  41  55 SW7G17    30.09R
$$

WIZ022-050-052-171600-
EAST CENTRAL WISCONSIN

CITY           SKY/WX    TMP DP  RH WIND       PRES   REMARKS
EPHRAIM        NOT AVBL
WASHINGTON ISL NOT AVBL
STURGEON BAY   SUNNY     56  42  59 W15G21    30.03S
MANITOWOC      SUNNY     58  42  55 W15G21    30.06R
SHEBOYGAN      SUNNY     58  44  60 W10G21    30.07S
$$

LMZ563-521-522-541>543-171600-
LAKESHORE

STATION/POSITION TIME  TEMP    WIND        PRES    VSBY  WAVE
                       AIR SEA DIR/SP/G                  HT/PER
                 (UTC) (F)     (DEG/KT/KT) (MB)    (MI)  (FT/S)
SHEBOYGAN LKSHOR 1400   56     250/ 18/ 22 1017.6R
KEWAUNEE LKSHORE 1430   57     270/ 11/ 17 1016.3R
NORTHPORT PIER   1440   55     250/  6/ 14 1015.6S
N MID LAKE BUOY  1350   56 60  250/ 17/ 21 1015.8R         6/ 7
S GREEN BAY BUOY 1430   53 58  220/ 14/ 16 1016.7R
SISTER BAY LKSHO 1404   57     240/ 15/ 17   N/A
MENOMINEE LKSHOR 1424   51     240/ 13/ 17 1015.9
$$




USA.gov is the U.S. government's official web portal to all federal, state and local government web resources and services.